User: anonymous   Login
Location: Powder Track
(41.8531°N, 72.3584°W)
Time: 19:00:47
(UTC+00:00)
Language:

N. Korean satellite - Orbit

View from above orbital plane
View from above orbital plane
View from above satellite
View from above satellite

Ground track
Ground track

The orbit data is extracted from the following two-line orbital elements,

1 39026U 12072A   21203.85942573  .00003281  00000-0  11230-3 0  9997
2 39026  97.2446 195.8679 0033561 257.4806 102.2680 15.30413017478440
Epoch (UTC): 22 July 2021 20:37:34
Eccentricity: 0.0033561
inclination: 97.2446°
perigee height: 451 km
apogee height: 497 km
right ascension of ascending node: 195.8679°
argument of perigee: 257.4806°
revolutions per day: 15.30413017
mean anomaly at epoch: 102.2680°
orbit number at epoch: 47844

The dashed part of the orbit path shows where the satellite is in the earth's shadow,  

DLR